Radiation Dose measured at exhaust stack monitor of Fukushima Daiichi Nuclear Power Station
Date,Time,Unit 5 6 shared exhaust cylinders,Wind Direction,Wind Velocity(m/s)
2023/03/31,00:00,3.7,south-southwest,3.4
2023/03/31,00:10,3.7,south-southwest,4.9
2023/03/31,00:20,3.5,south-southwest,3.8
2023/03/31,00:30,3.5,south-southwest,6.0
2023/03/31,00:40,3.7,south-southwest,7.2
2023/03/31,00:50,3.8,south-southwest,6.5
2023/03/31,01:00,3.7,south-southwest,7.0
2023/03/31,01:10,3.5,south-southwest,6.1
2023/03/31,01:20,3.6,south-southwest,4.6
2023/03/31,01:30,3.8,southwest,3.2
2023/03/31,01:40,3.9,southwest,3.5
2023/03/31,01:50,3.7,south-southwest,4.7
2023/03/31,02:00,3.6,southwest,4.8
2023/03/31,02:10,3.7,southwest,5.6
2023/03/31,02:20,3.7,southwest,5.8
2023/03/31,02:30,3.5,southwest,5.4
2023/03/31,02:40,3.6,southwest,6.3
2023/03/31,02:50,3.7,south-southwest,5.3
2023/03/31,03:00,3.7,south-southwest,4.5
2023/03/31,03:10,3.6,southwest,4.6
2023/03/31,03:20,3.5,southwest,5.5
2023/03/31,03:30,3.7,south-southwest,5.7
2023/03/31,03:40,3.7,south-southwest,5.8
2023/03/31,03:50,3.6,southwest,5.8
2023/03/31,04:00,3.9,southwest,5.2
2023/03/31,04:10,3.7,south-southwest,4.5
2023/03/31,04:20,3.7,south-southwest,2.9
2023/03/31,04:30,3.8,southwest,2.0
2023/03/31,04:40,3.8,west,2.0
2023/03/31,04:50,3.8,west-northwest,2.2
2023/03/31,05:00,3.7,west,1.9
2023/03/31,05:10,3.7,west,1.7
2023/03/31,05:20,3.8,west-southwest,1.2
2023/03/31,05:30,3.7,southwest,2.0
2023/03/31,05:40,3.7,southwest,2.5
2023/03/31,05:50,3.7,southwest,4.5
2023/03/31,06:00,3.9,southwest,5.5
2023/03/31,06:10,3.8,southwest,4.7
2023/03/31,06:20,3.6,south-southwest,3.7
2023/03/31,06:30,3.6,south-southwest,4.7
2023/03/31,06:40,3.7,south-southwest,5.2
2023/03/31,06:50,3.7,south,4.2
2023/03/31,07:00,3.6,south-southwest,3.3
2023/03/31,07:10,3.7,south,2.8
2023/03/31,07:20,3.9,south,3.8
2023/03/31,07:30,3.7,south-southwest,4.0
2023/03/31,07:40,3.6,south,4.1
2023/03/31,07:50,3.7,south,3.6
2023/03/31,08:00,3.7,south,3.4
2023/03/31,08:10,3.6,south,3.0
2023/03/31,08:20,3.6,south,3.3
2023/03/31,08:30,3.7,south,4.7
2023/03/31,08:40,3.8,south,4.1
2023/03/31,08:50,3.7,south-southeast,5.9
2023/03/31,09:00,3.5,south-southeast,5.9
2023/03/31,09:10,3.7,south,5.0
2023/03/31,09:20,3.8,south-southeast,4.7
2023/03/31,09:30,3.8,south,4.3
2023/03/31,09:40,3.7,south,4.3
2023/03/31,09:50,3.7,south-southeast,7.2
2023/03/31,10:00,3.7,south-southeast,8.0
2023/03/31,10:10,3.5,south-southeast,7.8
2023/03/31,10:20,3.7,south-southeast,6.8
2023/03/31,10:30,3.7,south-southeast,6.5
2023/03/31,10:40,3.6,south-southeast,8.6
2023/03/31,10:50,3.8,south-southeast,9.8
2023/03/31,11:00,3.7,south-southeast,10.5
2023/03/31,11:10,3.9,south-southeast,12.2
2023/03/31,11:20,3.5,south-southeast,10.9
2023/03/31,11:30,3.6,south-southeast,12.4
2023/03/31,11:40,3.6,south-southeast,14.4
2023/03/31,11:50,3.8,south-southeast,13.0
2023/03/31,12:00,3.6,south-southeast,12.5
2023/03/31,12:10,3.6,south-southeast,13.0
2023/03/31,12:20,3.6,south-southeast,11.8
2023/03/31,12:30,3.8,south-southeast,12.2
2023/03/31,12:40,3.6,south-southeast,9.6
2023/03/31,12:50,3.7,south-southeast,8.7
2023/03/31,13:00,3.6,south,8.7
2023/03/31,13:10,3.8,south,6.9
2023/03/31,13:20,3.8,south,7.7
2023/03/31,13:30,3.7,south,5.8
2023/03/31,13:40,3.7,south,6.8
2023/03/31,13:50,3.7,south,7.8
2023/03/31,14:00,3.4,south-southeast,6.9
2023/03/31,14:10,3.8,south-southeast,11.1
2023/03/31,14:20,3.8,south-southeast,9.1
2023/03/31,14:30,3.6,south,9.4
2023/03/31,14:40,3.8,south-southeast,9.2
2023/03/31,14:50,3.6,south,10.5
2023/03/31,15:00,3.6,south,9.9
2023/03/31,15:10,3.8,south,11.0
2023/03/31,15:20,3.9,south-southeast,11.6
2023/03/31,15:30,3.7,south,10.2
2023/03/31,15:40,3.8,south,8.9
2023/03/31,15:50,3.7,south,8.7
2023/03/31,16:00,3.6,south,8.4
2023/03/31,16:10,3.7,south,9.0
2023/03/31,16:20,3.8,south,7.5
2023/03/31,16:30,3.7,south,8.7
2023/03/31,16:40,3.8,south,9.1
2023/03/31,16:50,3.6,south,8.2
2023/03/31,17:00,3.7,south,7.7
2023/03/31,17:10,3.8,south,8.4
2023/03/31,17:20,3.8,south,6.8
2023/03/31,17:30,3.7,south,6.6
2023/03/31,17:40,3.7,south,6.7
2023/03/31,17:50,3.7,south,5.6
2023/03/31,18:00,3.7,south,6.2
2023/03/31,18:10,3.9,south,6.0
2023/03/31,18:20,3.6,south-southwest,4.6
2023/03/31,18:30,3.7,south-southwest,4.1
2023/03/31,18:40,3.7,south-southwest,4.5
2023/03/31,18:50,3.7,south-southwest,6.0
2023/03/31,19:00,3.6,southwest,6.1
2023/03/31,19:10,3.6,southwest,5.8
2023/03/31,19:20,3.7,southwest,6.8
2023/03/31,19:30,3.6,southwest,6.3
2023/03/31,19:40,3.6,southwest,6.6
2023/03/31,19:50,3.6,southwest,6.2
2023/03/31,20:00,3.8,southwest,5.9
2023/03/31,20:10,3.8,southwest,6.6
2023/03/31,20:20,3.8,southwest,6.2
2023/03/31,20:30,3.7,southwest,5.5
2023/03/31,20:40,3.9,southwest,5.2
2023/03/31,20:50,3.8,southwest,4.8
2023/03/31,21:00,3.9,west-southwest,4.4
2023/03/31,21:10,3.7,south-southwest,5.5
2023/03/31,21:20,3.8,southwest,5.1
2023/03/31,21:30,3.8,southwest,4.7
2023/03/31,21:40,3.7,southwest,3.5
2023/03/31,21:50,3.8,southwest,3.1
2023/03/31,22:00,3.8,southwest,3.5
2023/03/31,22:10,3.6,southwest,3.3
2023/03/31,22:20,3.8,west-southwest,2.8
2023/03/31,22:30,3.6,southwest,3.3
2023/03/31,22:40,3.7,southwest,3.3
2023/03/31,22:50,3.9,southwest,3.9
2023/03/31,23:00,3.8,southwest,5.0
2023/03/31,23:10,3.5,south-southwest,5.1
2023/03/31,23:20,3.8,southwest,5.2
2023/03/31,23:30,3.7,south-southwest,5.8
2023/03/31,23:40,3.7,southwest,5.0
2023/03/31,23:50,3.7,south-southwest,5.5
